This demonstration page uses our WeatherBlox Daily Observations layout. Learn more.

Left ArrowRight Arrow

39.29038, -76.61219

Hourly Observations for May 16, 2022

Temp ( °F °C ) Dew Point ( °F °C ) Humidity (%) Winds ( mph kmh ) Pressure ( in mb ) Visibility ( mi km ) Precip ( " mm )
12:54 am 00:54 Mostly Cloudy 68 20 63 17.2 84 84 Calm 29.79 1009 10 16 0.00 0.00
1:54 am 01:54 Mostly Cloudy 67 19.4 63 17.2 87 87 S 3 6 29.78 1009 10 16 0.00 0.00
2:54 am 02:54 Partly Cloudy 65 18.3 62 16.7 90 90 Calm 29.77 1008 10 16 0.00 0.00
3:54 am 03:54 Mostly Cloudy 66 18.9 64 17.8 93 93 Calm 29.76 1008 10 16 0.00 0.00
4:54 am 04:54 Mostly Cloudy 66 18.9 63 17.2 90 90 Calm 29.74 1007 10 16 0.00 0.00
5:54 am 05:54 Mostly Cloudy 65 18.3 63 17.2 93 93 Calm 29.72 1007 10 16 0.00 0.00
6:15 am 06:15 Mostly Cloudy 65 18.3 63 17.2 93 93 Calm 29.73 1007 10 16 0.00 0.00
6:54 am 06:54 Mostly Cloudy 66 18.9 63 17.2 90 90 Calm 29.72 1007 10 16 0.00 0.00
7:54 am 07:54 Mostly Cloudy 68 20 64 17.8 87 87 Calm 29.71 1006 10 16 0.00 0.00
8:09 am 08:09 Mostly Cloudy 68 20 64 17.8 87 87 SSE 5 7 29.71 1006 10 16 0.00 0.00
8:54 am 08:54 Mostly Cloudy 69 20.6 65 18.3 87 87 SSE 5 7 29.70 1006 10 16 0.00 0.00
9:36 am 09:36 Cloudy 70 21.1 65 18.3 84 84 SW 6 9 29.71 1006 10 16 0.00 0.00
9:54 am 09:54 Cloudy 70 21.1 65 18.3 84 84 SSW 7 11 29.70 1006 10 16 0.00 0.00
10:19 am 10:19 Cloudy 70 21.1 65 18.3 84 84 S 5 7 29.71 1006 10 16 0.00 0.00
10:54 am 10:54 Mostly Cloudy with Light Rain 71 21.7 65 18.3 81 81 S 6 9 29.69 1005 10 16 0.00 0.00
11:28 am 11:28 Mostly Cloudy with Light Rain 72 22.2 66 18.9 82 82 S 6 9 29.68 1005 10 16 0.00 0.00
11:54 am 11:54 Cloudy with Light Rain 72 22.2 66 18.9 82 82 SW 10 17 29.68 1005 10 16 0.00 0.00
12:54 pm 12:54 Cloudy with Light Rain 70 21.1 67 19.4 90 90 W 9 15 29.68 1005 5 8 0.02 0.51
1:54 pm 13:54 Mostly Cloudy 73 22.8 64 17.8 74 74 S 3 6 29.64 1004 10 16 0.01 0.25
2:54 pm 14:54 Mostly Cloudy 79 26.1 63 17.2 58 58 W 16 26 29.63 1004 10 16 0.00 0.00
3:54 pm 15:54 Mostly Cloudy 81 27.2 61 16.1 51 51 WNW 13 20 29.60 1003 10 16 0.00 0.00
4:54 pm 16:54 Mostly Cloudy 76 24.4 59 15 56 56 W 10 17 29.60 1003 10 16 0.00 0.00
5:54 pm 17:54 Mostly Cloudy 71 21.7 64 17.8 79 79 SW 9 15 29.63 1004 10 16 0.03 0.76
6:28 pm 18:28 Mostly Cloudy 75 23.9 57 13.9 54 54 W 18 30 29.64 1004 10 16 0.00 0.00
6:54 pm 18:54 Partly Cloudy 75 23.9 53 11.7 46 46 WNW 22 35 29.65 1004 10 16 0.00 0.00
7:54 pm 19:54 Mostly Sunny 71 21.7 51 10.6 49 49 WNW 18 30 29.69 1005 10 16 0.00 0.00
8:54 pm 20:54 Mostly Clear 69 20.6 48 8.9 47 47 W 10 17 29.72 1007 10 16 0.00 0.00
9:54 pm 21:54 Clear 65 18.3 49 9.4 56 56 W 9 15 29.77 1008 10 16 0.00 0.00
10:54 pm 22:54 Clear 64 17.8 50 10 60 60 SW 6 9 29.80 1009 10 16 0.00 0.00
11:54 pm 23:54 Mostly Clear 65 18.3 50 10 59 59 SSW 6 9 29.80 1009 10 16 0.00 0.00

Powered by AerisWeather